• In United Kingdom
  • List of Countries
  • For 7 days
  • Water Temperature
  • Satellite Maps
  • Weather Map
  • Weather Widgets
  • user-avatar
    Login

    Hourly Weather Cancún

    Today, 17 August, Thursday

    Time Temperature Precipitation Wind Pressure Humidity
    00:00 +29°C° 0 mm 3 mps 760 mmHg 87%
    01:00 +28°C° 0 mm 3 mps 760 mmHg 87%
    02:00 +28°C° 0 mm 3 mps 760 mmHg 87%
    03:00 +28°C° 0 mm 2 mps 760 mmHg 88%
    04:00 +28°C° 0 mm 2 mps 760 mmHg 87%
    05:00 +28°C° 0 mm 2 mps 760 mmHg 87%
    06:00 +28°C° 0 mm 2 mps 760 mmHg 86%
    07:00 +30°C° 0 mm 2 mps 760 mmHg 77%
    08:00 +32°C° 0 mm 2 mps 761 mmHg 68%
    09:00 +34°C° 0 mm 2 mps 761 mmHg 60%
    10:00 +35°C° 0 mm 3 mps 761 mmHg 56%
    11:00 +36°C° 0 mm 3 mps 761 mmHg 53%
    12:00 +37°C° 0 mm 3 mps 761 mmHg 50%
    13:00 +36°C° 0 mm 3 mps 760 mmHg 51%
    14:00 +36°C° 0 mm 3 mps 760 mmHg 52%
    15:00 +36°C° 0 mm 3 mps 759 mmHg 53%
    16:00 +34°C° 0 mm 3 mps 760 mmHg 59%
    17:00 +33°C° 0 mm 3 mps 760 mmHg 65%
    18:00 +31°C° 0 mm 3 mps 760 mmHg 71%
    19:00 +30°C° 0 mm 3 mps 760 mmHg 75%
    20:00 +29°C° 0 mm 3 mps 760 mmHg 78%
    21:00 +29°C° 0 mm 3 mps 761 mmHg 82%
    22:00 +28°C° 0 mm 3 mps 761 mmHg 84%
    23:00 +28°C° 0 mm 2 mps 760 mmHg 85%

    Tomorrow, 18 August, Friday

    Time Temperature Precipitation Wind Pressure Humidity
    00:00 +28°C° 0 mm 2 mps 760 mmHg 86%
    01:00 +28°C° 0 mm 2 mps 760 mmHg 87%
    02:00 +28°C° 0 mm 2 mps 760 mmHg 88%
    03:00 +28°C° 0 mm 2 mps 759 mmHg 90%
    04:00 +28°C° 0 mm 2 mps 759 mmHg 89%
    05:00 +28°C° 0 mm 2 mps 759 mmHg 89%
    06:00 +28°C° 0 mm 2 mps 759 mmHg 89%
    07:00 +30°C° 0 mm 2 mps 760 mmHg 79%
    08:00 +32°C° 0 mm 2 mps 760 mmHg 69%
    09:00 +35°C° 0 mm 2 mps 760 mmHg 59%
    10:00 +36°C° 0 mm 2 mps 760 mmHg 56%
    11:00 +36°C° 0 mm 3 mps 760 mmHg 52%
    12:00 +37°C° 0 mm 3 mps 760 mmHg 49%
    13:00 +37°C° 0 mm 3 mps 759 mmHg 51%
    14:00 +36°C° 0 mm 3 mps 759 mmHg 52%
    15:00 +36°C° 0 mm 3 mps 758 mmHg 54%
    16:00 +35°C° 0 mm 3 mps 758 mmHg 61%
    17:00 +33°C° 0 mm 3 mps 759 mmHg 68%
    18:00 +31°C° 0 mm 3 mps 759 mmHg 75%
    19:00 +30°C° 0 mm 3 mps 759 mmHg 79%
    20:00 +29°C° 0 mm 3 mps 760 mmHg 82%
    21:00 +29°C° 0 mm 3 mps 760 mmHg 85%
    22:00 +29°C° 0 mm 3 mps 760 mmHg 86%
    23:00 +28°C° 0 mm 3 mps 760 mmHg 87%

    Day after tomorrow, 19 August, Saturday

    Time Temperature Precipitation Wind Pressure Humidity
    00:00 +28°C° 0 mm 3 mps 759 mmHg 88%
    01:00 +28°C° 0 mm 2 mps 759 mmHg 89%
    02:00 +28°C° 0 mm 2 mps 759 mmHg 90%
    03:00 +28°C° 0 mm 2 mps 758 mmHg 91%
    04:00 +28°C° 0 mm 2 mps 758 mmHg 91%
    05:00 +28°C° 0 mm 2 mps 758 mmHg 91%
    06:00 +28°C° 0 mm 2 mps 758 mmHg 91%
    07:00 +30°C° 0 mm 2 mps 759 mmHg 81%
    08:00 +32°C° 0 mm 2 mps 759 mmHg 71%
    09:00 +35°C° 0 mm 2 mps 759 mmHg 61%
    10:00 +36°C° 0 mm 2 mps 759 mmHg 57%
    11:00 +36°C° 0 mm 3 mps 759 mmHg 53%
    12:00 +37°C° 0 mm 3 mps 759 mmHg 48%
    13:00 +37°C° 0 mm 3 mps 758 mmHg 50%
    14:00 +37°C° 0 mm 3 mps 758 mmHg 51%
    15:00 +36°C° 0 mm 3 mps 757 mmHg 52%
    16:00 +35°C° 0 mm 3 mps 757 mmHg 60%
    17:00 +33°C° 0 mm 3 mps 758 mmHg 67%
    18:00 +31°C° 0 mm 3 mps 758 mmHg 75%
    19:00 +30°C° 0 mm 3 mps 758 mmHg 78%
    20:00 +29°C° 0 mm 3 mps 759 mmHg 82%
    21:00 +29°C° 0 mm 3 mps 759 mmHg 85%
    22:00 +29°C° 0.5 mm 3 mps 759 mmHg 87%
    23:00 +28°C° 0.5 mm 3 mps 759 mmHg 88%

    20 August, Sunday

    Time Temperature Precipitation Wind Pressure Humidity
    00:00 +28°C° 0.5 mm 3 mps 759 mmHg 90%
    01:00 +28°C° 0 mm 2 mps 758 mmHg 90%
    02:00 +28°C° 0 mm 2 mps 758 mmHg 90%
    03:00 +27°C° 0 mm 1 mps 758 mmHg 90%
    04:00 +28°C° 0 mm 1 mps 758 mmHg 90%
    05:00 +28°C° 0 mm 1 mps 758 mmHg 90%
    06:00 +28°C° 0 mm 1 mps 758 mmHg 89%
    07:00 +30°C° 0 mm 2 mps 759 mmHg 80%
    08:00 +32°C° 0 mm 2 mps 759 mmHg 70%
    09:00 +35°C° 0 mm 2 mps 759 mmHg 61%
    10:00 +35°C° 0 mm 2 mps 759 mmHg 58%
    11:00 +36°C° 0 mm 2 mps 759 mmHg 56%
    12:00 +36°C° 0 mm 3 mps 759 mmHg 53%
    13:00 +36°C° 0.1 mm 3 mps 758 mmHg 55%
    14:00 +36°C° 0.1 mm 3 mps 758 mmHg 57%
    15:00 +35°C° 0.1 mm 3 mps 758 mmHg 59%
    16:00 +34°C° 0 mm 3 mps 758 mmHg 64%
    17:00 +33°C° 0 mm 3 mps 758 mmHg 70%
    18:00 +31°C° 0 mm 3 mps 758 mmHg 75%
    19:00 +30°C° 0 mm 3 mps 759 mmHg 78%
    20:00 +30°C° 0 mm 3 mps 759 mmHg 81%
    21:00 +29°C° 0 mm 3 mps 760 mmHg 83%
    22:00 +29°C° 0 mm 3 mps 760 mmHg 84%
    23:00 +29°C° 0 mm 3 mps 759 mmHg 85%

    21 August, Monday

    Time Temperature Precipitation Wind Pressure Humidity
    00:00 +29°C° 0 mm 3 mps 759 mmHg 86%
    01:00 +29°C° 0 mm 3 mps 759 mmHg 87%
    02:00 +29°C° 0 mm 3 mps 759 mmHg 88%
    03:00 +29°C° 0 mm 3 mps 759 mmHg 90%
    04:00 +29°C° 0 mm 3 mps 759 mmHg 88%
    05:00 +29°C° 0 mm 3 mps 759 mmHg 87%
    06:00 +29°C° 0 mm 3 mps 760 mmHg 85%
    07:00 +30°C° 0.2 mm 3 mps 760 mmHg 77%
    08:00 +33°C° 0.2 mm 4 mps 760 mmHg 69%
    09:00 +35°C° 0.2 mm 4 mps 760 mmHg 61%
    10:00 +35°C° 0.1 mm 4 mps 760 mmHg 58%
    11:00 +36°C° 0.1 mm 4 mps 760 mmHg 56%
    12:00 +37°C° 0.1 mm 4 mps 760 mmHg 53%
    13:00 +36°C° 0.5 mm 4 mps 759 mmHg 58%
    14:00 +35°C° 0.5 mm 4 mps 759 mmHg 62%
    15:00 +34°C° 0.5 mm 4 mps 759 mmHg 66%
    16:00 +33°C° 0.3 mm 4 mps 759 mmHg 70%
    17:00 +33°C° 0.3 mm 4 mps 759 mmHg 74%
    18:00 +32°C° 0.3 mm 4 mps 760 mmHg 78%
    19:00 +30°C° 0.2 mm 3 mps 760 mmHg 81%
    20:00 +30°C° 0.2 mm 3 mps 760 mmHg 83%
    21:00 +29°C° 0.2 mm 3 mps 761 mmHg 86%
    22:00 +29°C° 0.1 mm 3 mps 761 mmHg 86%
    23:00 +29°C° 0.1 mm 3 mps 760 mmHg 86%

    22 August, Tuesday

    Time Temperature Precipitation Wind Pressure Humidity
    00:00 +29°C° 0.1 mm 3 mps 760 mmHg 87%
    01:00 +29°C° 0 mm 3 mps 760 mmHg 87%
    02:00 +29°C° 0 mm 2 mps 760 mmHg 87%
    03:00 +28°C° 0 mm 2 mps 759 mmHg 87%
    04:00 +28°C° 0 mm 2 mps 759 mmHg 86%
    05:00 +29°C° 0 mm 2 mps 760 mmHg 86%
    06:00 +29°C° 0 mm 2 mps 760 mmHg 85%
    07:00 +30°C° 0 mm 2 mps 760 mmHg 77%
    08:00 +32°C° 0 mm 2 mps 760 mmHg 69%
    09:00 +34°C° 0 mm 2 mps 761 mmHg 61%
    10:00 +35°C° 0 mm 2 mps 760 mmHg 58%
    11:00 +36°C° 0 mm 2 mps 760 mmHg 54%
    12:00 +37°C° 0 mm 3 mps 760 mmHg 51%
    13:00 +36°C° 0 mm 3 mps 759 mmHg 53%
    14:00 +36°C° 0 mm 3 mps 759 mmHg 55%
    15:00 +36°C° 0 mm 3 mps 758 mmHg 58%
    16:00 +34°C° 0 mm 3 mps 758 mmHg 64%
    17:00 +33°C° 0 mm 3 mps 758 mmHg 70%
    18:00 +31°C° 0 mm 3 mps 759 mmHg 76%
    19:00 +30°C° 0 mm 3 mps 759 mmHg 79%
    20:00 +30°C° 0 mm 2 mps 759 mmHg 83%
    21:00 +29°C° 0 mm 2 mps 759 mmHg 86%
    22:00 +29°C° 0 mm 2 mps 759 mmHg 88%
    23:00 +28°C° 0 mm 2 mps 759 mmHg 89%
    Show more